Weather History for Martha's Vineyard, MA

Change the Weather History Date:

Monday, March 4, 2013

  Actual Average Record
Temperature  
Mean Temperature 36 °F -  
Max Temperature 42 °F 42 °F 60 °F (1991)
Min Temperature 30 °F 26 °F -7 °F (1950)
Degree Days  
Heating Degree Days 29    
Moisture  
Dew Point 23 °F    
Average Humidity 62    
Maximum Humidity 88    
Minimum Humidity 45    
Precipitation  
Precipitation 0.00 in - - ()
Sea Level Pressure  
Sea Level Pressure 29.62 in    
Wind  
Wind Speed 12 mph (NW)    
Max Wind Speed 17 mph    
Max Gust Speed 28 mph    
Visibility 10 miles    
Events Snow    
Averages and records for this station are not official NWS values.
T = Trace of Precipitation, MM = Missing Value Source: NWS Daily Summary

Daily Weather History Graph

Daily Weather History Graph

Search for Another Location

Airport:

Trip Planner

Search our weather history database for the weather conditions in past years. The results will help you decide how hot, cold, wet, or windy it might be!

Date:

Astronomy

Mar. 04, 2013 Rise Set
Actual Time 6:11 AM EST 5:36 PM EST
Civil Twilight 5:44 AM EST 6:04 PM EST
Nautical Twilight 5:12 AM EST 6:36 PM EST
Astronomical Twilight 4:40 AM EST 7:08 PM EST
Moon 12:20 AM EST (3/4) 10:12 AM EST (3/4)
Length of Visible Light 12h 20m
Length of Day
11h 25m
Waning Gibbous, 52% of the Moon is Illuminated
Mar 4
Waning Gibbous
Mar 4
Last Quarter
Mar 11
New
Mar 19
First Quarter
Mar 27
Full

Hourly Weather History & Observations

Time (EST) Temp. Windchill Dew Point Humidity Pressure Visibility Wind Dir Wind Speed Gust Speed Precip Events Conditions
12:53 AM 32.0 °F 25.6 °F 28.9 °F 88% 29.60 in 6.0 mi NW 6.9 mph - 0.00 in Snow Light Snow
1:53 AM 32.0 °F 24.2 °F 28.0 °F 85% 29.60 in 10.0 mi NW 9.2 mph - 0.00 in   Overcast
2:53 AM 33.1 °F 24.9 °F 27.0 °F 78% 29.60 in 10.0 mi WNW 10.4 mph - N/A   Overcast
3:53 AM 30.9 °F 22.2 °F 25.0 °F 79% 29.60 in 10.0 mi WNW 10.4 mph 16.1 mph N/A   Clear
4:53 AM 30.9 °F 22.8 °F 24.1 °F 76% 29.62 in 10.0 mi WNW 9.2 mph - N/A   Partly Cloudy
5:53 AM 30.9 °F 21.2 °F 23.0 °F 72% 29.62 in 10.0 mi WNW 12.7 mph - N/A   Scattered Clouds
6:53 AM 30.9 °F 22.8 °F 21.9 °F 69% 29.63 in 10.0 mi NW 9.2 mph - N/A   Clear
7:53 AM 32.0 °F 22.1 °F 21.9 °F 66% 29.64 in 10.0 mi NW 13.8 mph 25.3 mph N/A   Clear
8:53 AM 32.0 °F 21.2 °F 21.9 °F 66% 29.63 in 10.0 mi NW 16.1 mph 20.7 mph N/A   Clear
9:53 AM 37.0 °F 28.5 °F 23.0 °F 57% 29.62 in 10.0 mi NW 13.8 mph 21.9 mph N/A   Clear
10:53 AM 39.0 °F 30.3 °F 21.9 °F 50% 29.60 in 10.0 mi WNW 16.1 mph 24.2 mph N/A   Clear
11:53 AM 39.9 °F 31.8 °F 23.0 °F 51% 29.60 in 10.0 mi West 15.0 mph 26.5 mph N/A   Clear
12:53 PM 39.9 °F 31.4 °F 21.9 °F 49% 29.58 in 10.0 mi NW 16.1 mph 26.5 mph N/A   Mostly Cloudy
1:53 PM 42.1 °F 33.9 °F 21.9 °F 45% 29.57 in 10.0 mi WNW 17.3 mph 23.0 mph N/A   Partly Cloudy
2:53 PM 41.0 °F 33.5 °F 23.0 °F 49% 29.58 in 10.0 mi NW 13.8 mph 24.2 mph N/A   Mostly Cloudy
3:53 PM 39.9 °F 31.8 °F 21.9 °F 49% 29.59 in 10.0 mi WNW 15.0 mph - N/A   Mostly Cloudy
4:53 PM 39.0 °F 31.8 °F 21.9 °F 50% 29.60 in 10.0 mi WNW 11.5 mph 19.6 mph N/A   Overcast
5:53 PM 37.9 °F 28.9 °F 21.9 °F 53% 29.62 in 10.0 mi NW 16.1 mph 27.6 mph N/A   Overcast
6:53 PM 37.9 °F 29.6 °F 23.0 °F 55% 29.64 in 10.0 mi NW 13.8 mph - N/A   Overcast
7:53 PM 37.0 °F 28.9 °F 21.9 °F 54% 29.66 in 10.0 mi NW 12.7 mph 26.5 mph N/A   Overcast
8:53 PM 36.0 °F 26.0 °F 23.0 °F 59% 29.68 in 10.0 mi NNW 17.3 mph 24.2 mph N/A   Overcast
9:53 PM 35.1 °F 26.4 °F 23.0 °F 61% 29.68 in 10.0 mi NW 12.7 mph 19.6 mph N/A   Overcast
10:53 PM 35.1 °F 25.9 °F 23.0 °F 61% 29.70 in 10.0 mi NW 13.8 mph 20.7 mph N/A   Overcast
11:53 PM 35.1 °F 25.9 °F 24.1 °F 64% 29.71 in 10.0 mi NW 13.8 mph 20.7 mph N/A   Overcast